Location: Hackbridge
(51.3833°N, 0.1500°W)
Time: 00:30:25
(UTC+00:00)

STARLINK-68 - Pass Details

Date: 13 October 2019
Orbit: 548 x 551 km, 53.0° (Epoch: 13 November)

Event Time Altitude Azimuth Distance (km) Brightness Sun altitude
Rises 19:34:30 0° 248° (WSW) 2,712 7.9 -22.8°
Reaches altitude 10° 19:36:44 10° 248° (WSW) 1,820 6.9 -23.1°
Enters shadow 19:40:27 70° 230° (SW) 587 3.7 -23.7°
